Location: Linton
(51.2167°N, 0.5167°E)
Time: 05:25:08
(UTC+00:00)

Daily predictions for brighter satellites

Satellite Brightness Start Highest point End
(mag) Time Altitude Azimuth Time Altitude Azimuth Time Altitude Azimuth
GENESIS II 4.1 00:03:52 23° SW 00:06:15 89° NW 00:10:11 10° NE
SL-4 R/B 2.3 00:05:32 32° S 00:06:23 36° SSE 00:09:47 10° E
Nimbus 7 Rocket 4.5 00:00:50 10° NNE 00:06:55 84° WNW 00:11:12 21° SSW
Cosmos 1777 Rocket 4.1 00:01:52 10° NNW 00:07:09 70° WSW 00:10:23 24° S
MTI 4.1 00:05:26 10° N 00:08:25 52° WNW 00:09:37 30° SW
Lacrosse 5 rocket 2.3 00:08:39 10° W 00:12:05 41° NNW 00:15:30 10° NE
Cosmos 1184 Rocket 4.1 00:11:16 20° WSW 00:12:55 31° WNW 00:15:53 10° N
Elektron 1 3.9 00:15:17 10° WNW 00:18:17 50° SW 00:19:04 37° S
PSLV R/B 3.6 00:14:23 10° NNE 00:18:40 69° ESE 00:21:01 27° S
Cosmos 1626 Rocket 3.7 00:20:34 25° SSW 00:23:06 67° WNW 00:27:33 10° N
Cosmos 1634 Rocket 4.0 00:20:58 10° N 00:27:18 88° W 00:31:49 21° S
Cosmos 1703 4.4 00:25:16 19° SW 00:27:35 35° WNW 00:31:16 10° N
Cosmos 2279 Rocket 4.3 00:22:48 10° N 00:29:03 65° ENE 00:34:06 16° SSE
Cosmos 1602 Rocket 3.6 00:27:03 26° SSW 00:29:34 79° W 00:34:05 10° N
Cosmos 1441 Rocket 4.3 00:27:54 19° SW 00:30:11 36° WNW 00:33:45 10° N
OPS 6432 4.1 00:28:12 10° NW 00:31:09 83° SW 00:33:17 21° SE
FALCON 9 DEB 2.9 00:28:39 10° W 00:31:47 78° NNW 00:34:56 10° ENE
Aureole 3 3.2 00:29:00 10° NNW 00:32:29 75° W 00:34:38 27° S
FALCON 9 DEB 3.6 00:31:56 10° W 00:35:20 62° N 00:38:43 10° E
Cosmos 1892 3.4 00:33:27 23° SSE 00:35:28 44° E 00:39:11 10° NNE
Helios 1A 3.5 00:32:59 17° SE 00:36:05 55° ENE 00:40:12 10° N
Cosmos 1758 Rocket 3.6 00:34:16 26° S 00:36:47 78° E 00:41:13 10° NNE
Cosmos 990 Rocket 4.4 00:32:03 10° NNW 00:37:14 61° ENE 00:42:18 10° SE
Cosmos 1980 4.4 00:32:34 11° SW 00:37:49 50° NW 00:43:23 10° NNE
Cosmos 1898 Rocket 4.2 00:35:30 10° NNW 00:40:40 54° ENE 00:45:47 10° SE
Cosmos 1943 Rocket 2.1 00:36:08 10° NNW 00:41:39 74° WSW 00:45:48 18° SSE
Cosmos 2333 Rocket 4.4 00:38:35 10° W 00:42:59 22° NW 00:47:23 10° NNE
USA 229 DEB 4.3 00:46:21 20° S 00:50:21 41° ESE 00:56:39 10° NE
USA 229 4.3 00:46:28 20° S 00:50:27 41° ESE 00:56:45 10° NE
EO 1 Del DPAF 3.1 00:46:53 10° NNE 00:50:37 81° WNW 00:52:33 27° SSW
Resurs 1-4 Rocket 3.4 00:49:11 10° NNE 00:53:55 31° E 00:58:07 12° SSE
FALCON 9 DEB 3.3 00:50:53 10° W 00:53:58 62° N 00:57:03 10° ENE
Cosmos-2242 3.3 00:51:04 10° NNW 00:55:24 58° W 00:57:54 24° SSW
FALCON 9 DEB 3.2 00:53:22 10° W 00:56:29 65° N 00:59:36 10° ENE
Lacrosse 4 Rocket 3.9 00:56:24 10° NNW 00:59:46 23° NE 01:03:02 10° E
NOSS 3-1 (C) 3.4 00:56:48 21° SSW 01:00:29 64° SE 01:06:49 10° NE
Cosmos 1356 3.7 00:59:30 26° S 01:01:11 59° E 01:04:33 10° NNE
CZ-2D R/B 3.2 00:57:41 10° NNE 01:02:28 35° E 01:06:36 13° SSE
FALCON 9 DEB 3.4 01:00:01 10° W 01:03:06 61° N 01:06:11 10° ENE
YAOGAN 11 4.1 01:01:19 21° S 01:04:14 73° WSW 01:08:44 10° NNW
Cosmos 405 Rocket 3.2 01:03:33 21° SSE 01:05:42 47° E 01:09:16 10° NNE
SL-16 R/B 2.3 01:02:11 18° SW 01:06:27 78° WNW 01:12:10 10° NNE
ATLAS 3B R/B 4.2 01:01:11 10° W 01:07:14 35° NNW 01:13:31 10° NE
NOSS 2-3 (E) 3.8 01:06:52 23° SSW 01:09:19 57° SE 01:14:10 10° NE
NOSS 3-1 (A) 3.8 01:06:17 20° S 01:09:48 46° ESE 01:15:49 10° NE
Cosmos 1825 2.7 01:08:39 20° SSE 01:11:00 52° E 01:14:41 10° NNE
USA 215 3.9 01:04:52 10° ENE 01:11:16 60° NNW 01:17:40 10° W
ADEOS II 4.0 01:07:24 10° NE 01:11:28 22° E 01:15:30 10° SE
GP-B 4.5 01:07:56 10° NNW 01:11:43 28° WNW 01:14:28 15° SW
Cosmos 2237 Rocket 3.5 01:06:53 10° WSW 01:11:59 34° NW 01:17:05 10° NNE
SL-16 R/B 2.7 01:11:44 10° SSE 01:17:55 74° ENE 01:24:06 10° NNW
NOSS 8 (F) 4.5 01:17:04 27° SSW 01:18:28 50° SE 01:21:22 10° NE
Cosmos 468 Rocket 4.2 01:15:38 19° S 01:19:15 62° ESE 01:24:26 10° NNE
Cosmos 2369 Rocket 2.2 01:14:50 10° NNW 01:20:34 71° WSW 01:26:12 10° SSE
MOZ.5/SAFIR/RUBIN 5/SL-8 3.8 01:17:20 18° S 01:20:53 71° WSW 01:25:39 10° NNW
Meteor 2-13 Rocket 4.5 01:17:54 18° S 01:22:37 86° WNW 01:28:49 10° N
Cosmos 2098 Rocket 4.1 01:19:23 14° SSE 01:24:18 53° E 01:28:50 10° NNE
Cosmos 2221 2.7 01:20:23 10° N 01:24:42 73° ENE 01:28:29 13° SSE
Cosmos 2263 4.2 01:21:33 10° NNW 01:27:17 82° WSW 01:32:55 10° SSE
Cosmos 1656 Rocket 3.7 01:22:35 10° NNW 01:28:20 89° WSW 01:34:01 10° SSE
Aureole 3 Rocket 3.7 01:27:28 10° N 01:30:53 47° ENE 01:35:17 10° SSE
SJ 16-02 2.8 01:28:43 10° NW 01:32:03 21° W 01:33:58 16° SW
Cosmos 1932 4.4 01:27:37 10° NW 01:33:52 76° SW 01:40:03 10° SSE
Cosmos 1825 Rocket 4.3 01:32:45 17° SW 01:35:49 42° WNW 01:40:05 10° N
BREEZE-M DEB (TANK) 2.2 01:35:17 24° SW 01:36:18 51° SSE 01:39:59 10° E
ADEOS Rocket 3.8 01:31:12 10° SSE 01:38:24 63° ENE 01:44:57 10° N
Cosmos 1763 Rocket 3.4 01:35:27 18° SSW 01:39:17 86° ESE 01:44:27 10° NNE
Cosmos 1408 3.3 01:37:38 19° SW 01:39:55 42° WNW 01:43:28 10° N
BREEZE-M DEB (TANK) 4.2 01:37:24 10° W 01:42:40 73° SSW 02:03:20 10° ESE
NOSS 8 (H) 4.4 01:42:36 21° SSW 01:44:23 53° SE 01:47:17 10° NE
CZ-4 R/B 4.2 01:40:21 10° N 01:44:54 53° WNW 01:48:31 16° SW
X-37B 1.9 01:44:24 21° SSW 01:45:13 24° S 01:47:51 10° ESE
SL-4 R/B 1.6 01:41:58 10° W 01:45:45 89° S 01:49:18 10° E
Cosmos 1092 Rocket 4.4 01:40:22 10° S 01:46:21 58° E 01:52:22 10° NNE
ATLAS 5 CENTAUR R/B 3.6 01:44:10 10° SSE 01:46:31 15° ESE 01:49:00 10° ENE
Cosmos 1606 2.8 01:43:29 10° N 01:47:22 78° E 01:51:06 10° SSE
Cosmos 1437 Rocket 3.0 01:44:54 10° NNW 01:48:44 52° W 01:51:35 16° S
NOSS 2-3 (D) 3.7 01:46:34 15° SW 01:50:04 81° NW 01:55:13 10° NE
Lacrosse 5 rocket 2.9 01:48:28 10° WNW 01:51:45 32° N 01:55:04 10° ENE
Cosmos 2058 3.0 01:52:19 17° SSW 01:55:25 68° WNW 01:59:32 10° N
Cosmos 1242 Rocket 2.4 01:52:11 10° NNW 01:55:45 77° W 01:59:04 12° S
Cosmos 1953 Rocket 4.5 01:55:30 15° SW 01:58:46 37° WNW 02:02:53 10° N
Meteor 1-28 Rocket 4.0 02:00:37 10° SSE 02:04:18 53° ENE 02:08:02 10° N
IRS-1D 4.4 02:00:20 10° NNE 02:05:18 45° E 02:10:09 10° S
USA 290 3.9 02:04:05 10° SSE 02:06:49 26° ESE 02:09:34 10° NE
NOSS 2-3 (C) 4.1 02:03:00 11° WSW 02:07:06 61° NW 02:12:18 10° NE
FALCON 9 DEB 3.4 02:04:33 10° WNW 02:07:41 62° N 02:10:48 10° E
CREW DRAGON DEMO-1 DEB 2.9 02:07:57 19° SW 02:09:19 37° SSE 02:11:39 10° E
Exosat Rocket 4.1 02:03:34 13° SW 02:09:33 66° WNW 02:14:45 10° NNE
FALCON 9 DEB 3.0 02:08:55 10° WNW 02:12:19 71° SSW 02:15:41 10° ESE
Helios 1B rocket 2.4 02:09:29 10° NNE 02:13:35 75° WNW 02:17:16 13° SSW
Cosmos 1842 Rocket 4.2 02:11:22 10° NNW 02:15:23 38° W 02:19:03 12° SSW
Landsat 4 4.1 02:13:35 10° NNE 02:17:21 61° ESE 02:21:05 10° S
Cosmos 1437 2.4 02:15:20 10° NNW 02:18:07 62° W 02:20:51 10° S
SL-19 R/B 4.2 02:15:54 10° NNE 02:21:09 89° NW 02:26:32 10° SSW
Cosmos 1943 3.3 02:17:49 12° SW 02:23:05 77° WNW 02:28:47 10° NNE
Cosmos 1633 2.4 02:20:56 12° SSW 02:24:12 78° WNW 02:27:45 10° N
Cosmos 1943 Rocket 4.0 02:21:56 10° WNW 02:24:24 13° W 02:26:52 10° WSW
Cosmos 841 Rocket 3.5 02:19:42 12° SSW 02:24:34 83° WNW 02:29:45 10° NNE
Cosmos 1937 Rocket 4.3 02:22:45 10° NW 02:27:29 33° WSW 02:32:11 10° SSW
NPP 3.9 02:22:17 10° N 02:27:39 64° WNW 02:32:58 10° SSW
ASTEX 1 4.4 02:23:06 10° SSE 02:27:52 49° ENE 02:32:37 10° N
Cosmos 540 Rocket 3.6 02:23:06 11° SSW 02:27:55 69° WNW 02:33:03 10° NNE
Cosmos 1603 3.9 02:23:05 11° SW 02:28:34 69° WNW 02:34:14 10° NNE
USA 308 4.4 02:25:44 10° S 02:29:10 24° SE 02:32:36 10° E
FALCON 9 DEB 3.0 02:26:38 10° WNW 02:29:44 78° NNE 02:32:49 10° E
Cosmos 2298 Rocket 4.2 02:25:33 10° NNW 02:30:55 81° ENE 02:36:16 10° SSE
NOSS 5 (C) 4.3 02:28:30 10° NW 02:31:32 87° NE 02:35:04 10° SE
FALCON 9 DEB 3.1 02:29:14 10° WNW 02:32:22 72° NNE 02:35:29 10° E
Resurs 1-4 Rocket 2.7 02:28:51 10° N 02:33:55 47° WNW 02:38:59 10° SW
Cosmos 1782 3.5 02:30:47 10° N 02:34:44 57° ENE 02:38:41 10° SSE
NOSS 2-2 (E) 3.6 02:34:12 10° SSW 02:37:31 50° SE 02:41:17 10° NE
Cosmos 921 Rocket 3.0 02:33:57 10° SSW 02:38:08 70° WNW 02:42:21 10° NNE
Lacrosse 4 Rocket 1.3 02:34:43 10° NW 02:38:49 66° WSW 02:42:50 10° SSE
FALCON 9 DEB 2.9 02:35:47 10° WNW 02:38:54 81° NNE 02:42:00 10° ESE
Cosmos 1553 Rocket 4.1 02:32:33 10° N 02:38:57 87° E 02:45:12 10° S
CZ-4C R/B 3.1 02:37:19 10° SSE 02:40:46 83° ENE 02:44:15 10° NNW
USA 229 DEB 4.1 02:34:36 10° WSW 02:41:04 62° NW 02:48:02 10° NE
USA 229 4.1 02:34:42 10° WSW 02:41:09 62° NW 02:48:08 10° NE
CZ-2D R/B 2.8 02:37:43 10° N 02:42:36 41° WNW 02:47:27 10° SW
S3M 4.4 02:37:05 10° N 02:43:13 67° ENE 02:49:22 10° SSE
IRIDIUM 104 4.4 02:37:59 10° N 02:43:14 89° E 02:48:28 10° S
Cosmos 2150 Rocket 4.0 02:38:39 10° NNW 02:43:51 87° WSW 02:49:06 10° SSE
Cosmos 1825 4.2 02:44:24 10° WSW 02:46:48 16° WNW 02:49:14 10° NNW
Cosmos 1814 Rocket 4.1 02:42:59 10° SSW 02:48:13 78° WNW 02:53:25 10° NNE
USA 305 3.9 02:44:45 10° SSW 02:48:35 34° SE 02:52:26 10° ENE
Cosmos 1570 Rocket 4.1 02:44:24 10° SSW 02:49:37 77° WNW 02:54:53 10° NNE
NOSS 2-2 (C) 3.5 02:47:07 10° SSW 02:50:27 51° SE 02:54:09 10° NE
Cosmos 1933 3.5 02:47:27 10° NNW 02:51:28 57° W 02:55:28 10° S
SL-16 R/B 4.1 02:47:11 10° W 02:51:31 22° NW 02:55:51 10° NNE
ADEOS II 2.3 02:46:24 10° N 02:51:38 65° WNW 02:56:49 10° SSW
NOSS 3-1 (C) 4.5 02:46:13 10° W 02:51:41 42° NNW 02:58:12 10° NE
Cosmos 1812 4.1 02:48:12 10° N 02:51:53 42° ENE 02:55:32 10° SSE
IRIDIUM 114 4.4 02:47:09 10° N 02:52:24 78° W 02:57:36 10° S
USA 215 4.1 02:47:29 10° E 02:53:52 57° N 03:00:14 10° WNW
Cosmos 1076 Rocket 4.4 02:51:51 10° SW 02:55:45 35° WNW 02:59:41 10° N
Cosmos 2026 Rocket 4.2 02:49:56 10° SSW 02:56:06 61° WNW 03:02:25 10° N
